Manhattan, KS

4:50 PM CDT on August 23, 2017 (GMT -0500)
Manhattan Regional

Weather History for KMHK - November, 2011

Change the Weather History Date:

Wednesday, November 2, 2011

  Actual Average Record
Temperature  
Mean Temperature 48 °F 49 °F  
Max Temperature 59 °F 61 °F 80 °F (2008)
Min Temperature 37 °F 36 °F 19 °F (2006)
Degree Days  
Heating Degree Days 17 17  
Month to date heating degree days 33  
Since 1 July heating degree days 432  
Cooling Degree Days 0 0  
Month to date cooling degree days 0  
Year to date cooling degree days 1361  
Moisture  
Dew Point 38 °F    
Average Humidity 85    
Maximum Humidity 93    
Minimum Humidity 62    
Precipitation  
Precipitation 0.14 in 0.08 in 0.36 in (1998)
Month to date precipitation 0.16  
Year to date precipitation 30.09  
Sea Level Pressure  
Sea Level Pressure 30.09 in    
Wind  
Wind Speed 11 mph (NNE)    
Max Wind Speed 23 mph    
Max Gust Speed 36 mph    
Visibility 8 miles    
Events Rain , Snow , Thunderstorm    
T = Trace of Precipitation, MM = Missing Value Source: NWS Daily Summary

Daily Weather History Graph

Daily Weather History Graph

Search for Another Location

Airport or City:

Trip Planner

Search our weather history database for the weather conditions in past years. The results will help you decide how hot, cold, wet, or windy it might be!

Date:

Astronomy

Nov. 02, 2011 Rise Set
Actual Time 7:55 AM CDT 6:24 PM CDT
Civil Twilight 7:27 AM CDT 6:52 PM CDT
Nautical Twilight 6:55 AM CDT 7:24 PM CDT
Astronomical Twilight 6:24 AM CDT 7:55 PM CDT
Moon 2:15 PM CDT (11/2) 12:09 AM CDT (11/2)
Length of Visible Light 11h 25m
Length of Day
10h 29m
Waxing Crescent, 50% of the Moon is Illuminated
Nov 2
Waxing Crescent
Nov 10
Full
Nov 18
Last Quarter
Nov 25
New
Dec 2
First Quarter

Hourly Weather History & Observations

Time (CDT) Temp. Windchill Dew Point Humidity Pressure Visibility Wind Dir Wind Speed Gust Speed Precip Events Conditions
12:52 AM 59.0 °F - 46.0 °F 62% 29.90 in 10.0 mi Calm Calm - N/A   Overcast
1:52 AM 57.9 °F - 46.0 °F 65% 29.91 in 10.0 mi Calm Calm - N/A   Overcast
2:52 AM 57.9 °F - 46.0 °F 65% 29.91 in 10.0 mi North 5.8 mph - N/A   Overcast
3:52 AM 55.0 °F - 43.0 °F 64% 29.91 in 10.0 mi NNE 8.1 mph - N/A   Overcast
4:52 AM 52.0 °F - 43.0 °F 71% 29.92 in 10.0 mi NNE 6.9 mph - 0.00 in Thunderstorm Overcast
5:07 AM 51.8 °F - 42.8 °F 71% 29.93 in 10.0 mi NNE 4.6 mph - N/A   Mostly Cloudy
5:52 AM 50.0 °F - 41.0 °F 71% 29.95 in 10.0 mi NNE 9.2 mph - N/A   Overcast
6:52 AM 48.9 °F - 41.0 °F 74% 29.97 in 10.0 mi NNE 11.5 mph 19.6 mph N/A   Overcast
7:52 AM 48.0 °F - 39.9 °F 74% 30.00 in 10.0 mi NE 20.7 mph 26.5 mph N/A   Overcast
8:38 AM 46.4 °F 39.8 °F 39.2 °F 76% 30.01 in 10.0 mi NNE 16.1 mph 26.5 mph N/A   Overcast
8:52 AM 46.0 °F 38.5 °F 41.0 °F 83% 30.01 in 10.0 mi NE 19.6 mph 27.6 mph N/A   Overcast
9:52 AM 45.0 °F 39.3 °F 41.0 °F 86% 30.06 in 10.0 mi NNE 11.5 mph 24.2 mph 0.01 in   Overcast
10:52 AM 44.1 °F 35.9 °F 39.9 °F 85% 30.03 in 10.0 mi NNE 19.6 mph 26.5 mph 0.00 in Rain Light Rain
11:37 AM 42.8 °F 35.8 °F 39.2 °F 87% 30.05 in 2.5 mi NNE 13.8 mph 24.2 mph 0.00 in Rain Light Rain
11:44 AM 42.8 °F 34.5 °F 39.2 °F 87% 30.06 in 2.5 mi NNE 18.4 mph 25.3 mph 0.00 in Rain Light Rain
11:52 AM 43.0 °F 35.4 °F 39.9 °F 89% 30.06 in 2.5 mi NNE 16.1 mph 25.3 mph 0.00 in Rain Light Rain
12:52 PM 42.1 °F 33.1 °F 39.9 °F 92% 30.07 in 2.0 mi NNE 20.7 mph 28.8 mph 0.02 in Rain Light Rain
1:31 PM 41.0 °F 31.9 °F 39.2 °F 93% 30.07 in 3.0 mi NNE 19.6 mph 27.6 mph 0.01 in Rain Light Rain
1:52 PM 41.0 °F 32.2 °F 37.9 °F 89% 30.08 in 6.0 mi North 18.4 mph 31.1 mph 0.01 in Rain Light Rain
2:52 PM 39.0 °F 28.5 °F 36.0 °F 89% 30.08 in 10.0 mi NNE 23.0 mph 35.7 mph 0.01 in Rain Light Rain
3:52 PM 39.0 °F 30.6 °F 37.0 °F 93% 30.11 in 4.0 mi North 15.0 mph 29.9 mph 0.00 in Rain Light Rain
4:03 PM 37.4 °F 28.9 °F 35.6 °F 93% 30.11 in 2.5 mi North 13.8 mph 27.6 mph 0.00 in Snow Light Snow
4:45 PM 37.4 °F 27.8 °F 35.6 °F 93% 30.12 in 4.0 mi NNE 17.3 mph 29.9 mph 0.01 in Rain Light Rain
4:52 PM 37.9 °F 28.5 °F 36.0 °F 93% 30.13 in 5.0 mi NNE 17.3 mph 27.6 mph 0.01 in Rain Light Rain
5:52 PM 37.9 °F 28.2 °F 36.0 °F 93% 30.15 in 6.0 mi North 18.4 mph 29.9 mph 0.00 in Rain Light Rain
6:09 PM 39.2 °F 30.2 °F 35.6 °F 87% 30.13 in 9.0 mi NNE 17.3 mph 34.5 mph 0.00 in   Overcast
6:36 PM 39.2 °F 29.3 °F 35.6 °F 87% 30.14 in 10.0 mi NNE 20.7 mph 29.9 mph 0.00 in   Overcast
6:48 PM 39.2 °F 30.5 °F 35.6 °F 87% 30.15 in 10.0 mi North 16.1 mph 29.9 mph 0.00 in   Overcast
6:52 PM 39.0 °F 30.3 °F 36.0 °F 89% 30.18 in 10.0 mi North 16.1 mph 28.8 mph 0.00 in   Overcast
7:52 PM 39.9 °F 32.1 °F 37.0 °F 89% 30.20 in 8.0 mi North 13.8 mph 27.6 mph 0.01 in Rain Light Rain
8:47 PM 39.2 °F 32.0 °F 37.4 °F 93% 30.20 in 4.0 mi North 11.5 mph - 0.03 in Rain Light Rain
8:52 PM 39.0 °F 30.3 °F 37.0 °F 93% 30.22 in 5.0 mi North 16.1 mph 28.8 mph 0.03 in Rain Light Rain
9:01 PM 39.2 °F 30.5 °F 37.4 °F 93% 30.20 in 6.0 mi North 16.1 mph 28.8 mph 0.00 in Rain Light Rain
9:52 PM 37.9 °F 29.2 °F 36.0 °F 93% 30.24 in 8.0 mi North 15.0 mph 25.3 mph 0.02 in Rain Light Rain
9:59 PM 37.4 °F 29.3 °F 35.6 °F 93% 30.21 in 8.0 mi North 12.7 mph 27.6 mph 0.01 in Rain Light Rain
10:17 PM 37.4 °F 28.9 °F 35.6 °F 93% 30.21 in 10.0 mi NNW 13.8 mph 27.6 mph 0.01 in Rain Light Rain
10:29 PM 37.4 °F 29.3 °F 35.6 °F 93% 30.22 in 10.0 mi North 12.7 mph 27.6 mph 0.02 in Rain Light Rain
10:42 PM 37.4 °F 28.5 °F 35.6 °F 93% 30.22 in 10.0 mi North 15.0 mph 27.6 mph N/A Rain Light Rain
10:52 PM 37.0 °F 27.7 °F 35.1 °F 93% 30.24 in 10.0 mi North 16.1 mph 28.8 mph 0.02 in   Overcast
10:59 PM 37.4 °F 27.5 °F 35.6 °F 93% 30.22 in 10.0 mi North 18.4 mph 33.4 mph N/A   Overcast
11:52 PM 39.0 °F 30.6 °F 33.1 °F 79% 30.25 in 10.0 mi NNW 15.0 mph 21.9 mph N/A   Overcast